Hilo, HI

10:51 PM HST on September 24, 2017 (GMT -1000)
Hilo International

Weather History for PHTO - January, 2013

Change the Weather History Date:

Monday, January 28, 2013

  Actual Average Record
Temperature  
Mean Temperature 72 °F 71 °F  
Max Temperature 84 °F 79 °F 92 °F (1997)
Min Temperature 59 °F 64 °F 57 °F (2007)
Degree Days  
Heating Degree Days 0 0  
Month to date heating degree days 0 0  
Since 1 July heating degree days 0 0  
Cooling Degree Days 7 6  
Month to date cooling degree days 179 179  
Year to date cooling degree days 179 179  
Growing Degree Days 21 (Base 50)    
Moisture  
Dew Point 59 °F    
Average Humidity 64    
Maximum Humidity 84    
Minimum Humidity 43    
Precipitation  
Precipitation T in 0.33 in 3.05 in (2014)
Month to date precipitation 8.20 8.27  
Year to date precipitation 8.20 8.27  
Snow  
Snow 0.00 in - - ()
Month to date snowfall 0.0  
Since 1 July snowfall 0.0  
Snow Depth 0.00 in    
Sea Level Pressure  
Sea Level Pressure 29.94 in    
Wind  
Wind Speed 7 mph (South)    
Max Wind Speed 17 mph    
Max Gust Speed 23 mph    
Visibility 10 miles    
Events Rain    
T = Trace of Precipitation, MM = Missing Value Source: NWS Daily Summary

Daily Weather History Graph

Daily Weather History Graph

Search for Another Location

Airport or City:

Trip Planner

Search our weather history database for the weather conditions in past years. The results will help you decide how hot, cold, wet, or windy it might be!

Date:

Astronomy

Jan. 28, 2013 Rise Set
Actual Time 6:56 AM HST 6:10 PM HST
Civil Twilight 6:33 AM HST 6:33 PM HST
Nautical Twilight 6:06 AM HST 7:00 PM HST
Astronomical Twilight 5:40 AM HST 7:26 PM HST
Moon 7:52 PM HST (1/28) 7:48 AM HST (1/28)
Length of Visible Light 12h 00m
Length of Day
11h 14m
Full, 97% of the Moon is Illuminated
Jan 28
Full
Feb 3
Last Quarter
Feb 9
New
Feb 17
First Quarter
Feb 25
Full

Hourly Weather History & Observations

Time (HST) Temp. Heat Index Dew Point Humidity Pressure Visibility Wind Dir Wind Speed Gust Speed Precip Events Conditions
12:53 AM 60.1 °F - 55.0 °F 83% 29.97 in 10.0 mi South 4.6 mph - N/A   Scattered Clouds
1:53 AM 63.0 °F - 55.0 °F 75% 29.95 in 10.0 mi SW 6.9 mph - N/A   Partly Cloudy
2:53 AM 62.1 °F - 54.0 °F 75% 29.95 in 10.0 mi South 4.6 mph - N/A   Partly Cloudy
3:53 AM 62.1 °F - 53.1 °F 72% 29.94 in 10.0 mi SSW 4.6 mph - N/A   Partly Cloudy
4:53 AM 63.0 °F - 53.1 °F 70% 29.94 in 10.0 mi SW 6.9 mph - N/A   Scattered Clouds
5:53 AM 62.1 °F - 53.1 °F 72% 29.94 in 10.0 mi SW 6.9 mph - N/A   Partly Cloudy
6:53 AM 62.1 °F - 53.1 °F 72% 29.96 in 10.0 mi SW 3.5 mph - N/A   Scattered Clouds
7:53 AM 63.0 °F - 57.0 °F 81% 29.98 in 10.0 mi Calm Calm - N/A   Mostly Cloudy
8:53 AM 71.1 °F - 59.0 °F 66% 29.98 in 10.0 mi SSE 8.1 mph - N/A   Mostly Cloudy
9:53 AM 73.0 °F - 62.1 °F 68% 30.00 in 10.0 mi SSE 6.9 mph - N/A   Mostly Cloudy
10:53 AM 78.1 °F - 61.0 °F 56% 29.97 in 10.0 mi SSE 10.4 mph - N/A   Mostly Cloudy
11:53 AM 80.1 °F 80.9 °F 60.1 °F 50% 29.94 in 10.0 mi SSE 10.4 mph 18.4 mph N/A   Mostly Cloudy
12:53 PM 82.0 °F 82.1 °F 59.0 °F 45% 29.91 in 10.0 mi South 9.2 mph - N/A   Clear
1:53 PM 82.0 °F 82.0 °F 57.9 °F 44% 29.88 in 10.0 mi SE 11.5 mph 20.7 mph N/A   Mostly Cloudy
2:53 PM 79.0 °F - 59.0 °F 50% 29.86 in 10.0 mi ESE 16.1 mph 20.7 mph N/A   Mostly Cloudy
3:53 PM 77.0 °F - 60.1 °F 56% 29.87 in 10.0 mi SE 13.8 mph - N/A   Mostly Cloudy
4:53 PM 75.9 °F - 61.0 °F 60% 29.89 in 10.0 mi SSE 12.7 mph - N/A   Scattered Clouds
5:53 PM 73.9 °F - 62.1 °F 66% 29.91 in 10.0 mi SSE 9.2 mph - N/A   Clear
6:53 PM 73.0 °F - 63.0 °F 71% 29.93 in 10.0 mi SSE 4.6 mph - N/A   Mostly Cloudy
7:53 PM 72.0 °F - 64.0 °F 76% 29.96 in 10.0 mi South 5.8 mph - N/A   Partly Cloudy
8:53 PM 72.0 °F - 62.1 °F 71% 29.98 in 10.0 mi South 5.8 mph - N/A   Mostly Cloudy
9:53 PM 70.0 °F - 64.0 °F 81% 29.99 in 10.0 mi SSW 5.8 mph - 0.00 in Rain Light Rain
10:53 PM 69.1 °F - 64.0 °F 84% 29.99 in 10.0 mi South 4.6 mph - 0.00 in   Overcast
11:53 PM 70.0 °F - 63.0 °F 78% 29.97 in 10.0 mi SSW 5.8 mph - 0.00 in   Overcast